EZY38EC EGKK-LFPG

Flight info

Callsign EZY38EC
Flight time 0h 37m
Altitude 25000
Route SFD M605 HARDY UM605 BIBAX
Aircraft A319/M-SDE2E3FGIJ1RWXYZ/LB1

Departure

Time 2026-05-08 19:54
Airport London Gatwick Airport (EGKK)

Arrival

Time 2026-05-08 20:31
Airport Charles de Gaulle International Airport (LFPG)
Time Latitude Longitude Altitude Speed Heading
2026-05-08 19:16 51.15817 -0.17937 215 ft 0 kts 77°
2026-05-08 19:34 51.15817 -0.17943 204 ft 3 kts 77°
2026-05-08 19:34 51.15813 -0.17970 216 ft 4 kts 77°
2026-05-08 19:34 51.15807 -0.18012 215 ft 3 kts 77°
2026-05-08 19:35 51.15803 -0.18044 213 ft 4 kts 105°
2026-05-08 19:35 51.15817 -0.18069 214 ft 3 kts 167°
2026-05-08 19:35 51.15834 -0.18075 216 ft 0 kts 167°
2026-05-08 19:44 51.15818 -0.18070 210 ft 4 kts 167°
2026-05-08 19:44 51.15774 -0.18054 204 ft 9 kts 166°
2026-05-08 19:44 51.15716 -0.18033 204 ft 7 kts 172°
2026-05-08 19:45 51.15684 -0.18071 208 ft 6 kts 244°
2026-05-08 19:45 51.15675 -0.18130 209 ft 5 kts 259°
2026-05-08 19:45 51.15668 -0.18184 204 ft 5 kts 258°
2026-05-08 19:45 51.15659 -0.18246 209 ft 7 kts 257°
2026-05-08 19:46 51.15644 -0.18329 208 ft 9 kts 239°
2026-05-08 19:46 51.15589 -0.18347 204 ft 9 kts 165°
2026-05-08 19:46 51.15435 -0.18294 208 ft 13 kts 167°
2026-05-08 19:47 51.15347 -0.18261 204 ft 12 kts 167°
2026-05-08 19:47 51.15275 -0.18236 204 ft 9 kts 168°
2026-05-08 19:47 51.15215 -0.18218 204 ft 8 kts 179°
2026-05-08 19:47 51.15186 -0.18282 211 ft 8 kts 263°
2026-05-08 19:48 51.15180 -0.18363 204 ft 7 kts 260°
2026-05-08 19:48 51.15169 -0.18448 209 ft 9 kts 257°
2026-05-08 19:48 51.15155 -0.18553 209 ft 11 kts 257°
2026-05-08 19:48 51.15136 -0.18687 203 ft 14 kts 258°
2026-05-08 19:49 51.15114 -0.18844 213 ft 14 kts 258°
2026-05-08 19:49 51.15093 -0.19001 204 ft 15 kts 258°
2026-05-08 19:49 51.15071 -0.19160 213 ft 15 kts 258°
2026-05-08 19:49 51.15030 -0.19268 206 ft 10 kts 191°
2026-05-08 19:50 51.14971 -0.19284 213 ft 9 kts 219°
2026-05-08 19:50 51.14946 -0.19397 206 ft 15 kts 257°
2026-05-08 19:50 51.14917 -0.19612 206 ft 21 kts 257°
2026-05-08 19:50 51.14884 -0.19845 211 ft 22 kts 257°
2026-05-08 19:51 51.14848 -0.20094 203 ft 23 kts 258°
2026-05-08 19:51 51.14814 -0.20352 202 ft 24 kts 258°
2026-05-08 19:51 51.14779 -0.20612 208 ft 24 kts 258°
2026-05-08 19:51 51.14742 -0.20878 204 ft 24 kts 257°
2026-05-08 19:52 51.14706 -0.21140 204 ft 24 kts 258°
2026-05-08 19:52 51.14690 -0.21262 208 ft 9 kts 258°
2026-05-08 19:52 51.14651 -0.21334 207 ft 10 kts 191°
2026-05-08 19:52 51.14582 -0.21314 209 ft 11 kts 163°
2026-05-08 19:53 51.14523 -0.21228 209 ft 13 kts 112°
2026-05-08 19:53 51.14533 -0.21072 206 ft 25 kts 78°
2026-05-08 19:53 51.14632 -0.20342 206 ft 103 kts 78°
2026-05-08 19:53 51.14830 -0.18914 273 ft 151 kts 77°
2026-05-08 19:54 51.15047 -0.17347 962 ft 146 kts 79°
2026-05-08 19:54 51.15270 -0.15718 1543 ft 155 kts 79°
2026-05-08 19:54 51.15513 -0.13956 1979 ft 174 kts 79°
2026-05-08 19:54 51.15776 -0.11963 2384 ft 197 kts 79°
2026-05-08 19:55 51.16081 -0.09697 2896 ft 217 kts 79°
2026-05-08 19:55 51.16105 -0.07273 3678 ft 224 kts 109°
2026-05-08 19:55 51.15158 -0.05273 4343 ft 242 kts 145°
2026-05-08 19:55 51.13549 -0.04194 5008 ft 259 kts 164°
2026-05-08 19:56 51.11753 -0.03611 5914 ft 266 kts 170°
2026-05-08 19:56 51.09912 -0.03180 6910 ft 269 kts 172°
2026-05-08 19:56 51.08059 -0.02652 7861 ft 273 kts 168°
2026-05-08 19:56 51.06202 -0.01953 8827 ft 276 kts 167°
2026-05-08 19:57 51.04337 -0.01139 9801 ft 279 kts 165°
2026-05-08 19:57 51.02457 -0.00264 10647 ft 284 kts 165°
2026-05-08 19:57 51.00548 0.00646 11488 ft 289 kts 165°
2026-05-08 19:57 50.98613 0.01573 12336 ft 293 kts 164°
2026-05-08 19:58 50.96648 0.02512 13183 ft 297 kts 165°
2026-05-08 19:58 50.94655 0.03458 13995 ft 301 kts 165°
2026-05-08 19:58 50.92637 0.04411 14739 ft 304 kts 164°
2026-05-08 19:58 50.90601 0.05374 15506 ft 307 kts 165°
2026-05-08 19:59 50.88548 0.06343 16274 ft 309 kts 165°
2026-05-08 19:59 50.86480 0.07316 17030 ft 312 kts 165°
2026-05-08 19:59 50.84392 0.08294 17781 ft 314 kts 165°
2026-05-08 19:59 50.82286 0.09279 18523 ft 317 kts 165°
2026-05-08 20:00 50.80162 0.10271 19157 ft 320 kts 165°
2026-05-08 20:00 50.78015 0.11279 19756 ft 324 kts 164°
2026-05-08 20:00 50.75923 0.12679 20334 ft 331 kts 152°
2026-05-08 20:00 50.73975 0.14804 20501 ft 351 kts 142°
2026-05-08 20:01 50.72034 0.17302 20675 ft 367 kts 142°
2026-05-08 20:01 50.70036 0.19887 21120 ft 375 kts 142°
2026-05-08 20:01 50.68006 0.22505 21655 ft 380 kts 142°
2026-05-08 20:01 50.65943 0.25153 22196 ft 385 kts 142°
2026-05-08 20:02 50.63855 0.27825 22737 ft 389 kts 143°
2026-05-08 20:02 50.61741 0.30525 23259 ft 394 kts 142°
2026-05-08 20:02 50.59599 0.33253 23774 ft 398 kts 142°
2026-05-08 20:02 50.57463 0.35975 24217 ft 402 kts 142°
2026-05-08 20:03 50.55277 0.38756 24631 ft 406 kts 143°
2026-05-08 20:03 50.53066 0.41562 24994 ft 410 kts 143°
2026-05-08 20:03 50.50847 0.44373 25087 ft 407 kts 143°
2026-05-08 20:03 50.48692 0.47105 25102 ft 390 kts 143°
2026-05-08 20:04 50.46598 0.49760 25108 ft 385 kts 142°
2026-05-08 20:04 50.44515 0.52389 25105 ft 384 kts 143°
2026-05-08 20:04 50.42434 0.55013 25109 ft 384 kts 142°
2026-05-08 20:04 50.40355 0.57630 25105 ft 382 kts 142°
2026-05-08 20:05 50.38285 0.60226 25105 ft 382 kts 142°
2026-05-08 20:05 50.36208 0.62832 25106 ft 383 kts 142°
2026-05-08 20:05 50.34129 0.65443 25106 ft 384 kts 142°
2026-05-08 20:05 50.32051 0.68052 25097 ft 382 kts 142°
2026-05-08 20:06 50.29982 0.70653 25099 ft 381 kts 142°
2026-05-08 20:06 50.27909 0.73256 25099 ft 381 kts 142°
2026-05-08 20:06 50.25841 0.75844 25099 ft 381 kts 142°
2026-05-08 20:06 50.23769 0.78432 25101 ft 381 kts 142°
2026-05-08 20:07 50.21706 0.81004 24923 ft 377 kts 142°
2026-05-08 20:07 50.19668 0.83543 24685 ft 373 kts 143°
2026-05-08 20:07 50.17642 0.86066 24444 ft 372 kts 142°
2026-05-08 20:07 50.15615 0.88584 24210 ft 371 kts 142°
2026-05-08 20:08 50.13603 0.91079 23976 ft 368 kts 142°
2026-05-08 20:08 50.11604 0.93556 23751 ft 367 kts 141°
2026-05-08 20:08 50.09608 0.96030 23492 ft 366 kts 141°
2026-05-08 20:08 50.07617 0.98493 23216 ft 365 kts 142°
2026-05-08 20:09 50.05576 1.00821 22949 ft 363 kts 149°
2026-05-08 20:09 50.03341 1.02622 22681 ft 361 kts 155°
2026-05-08 20:09 50.01082 1.04315 22410 ft 359 kts 155°
2026-05-08 20:09 49.98841 1.06003 22152 ft 356 kts 155°
2026-05-08 20:10 49.96623 1.07675 21900 ft 353 kts 155°
2026-05-08 20:10 49.94417 1.09337 21623 ft 351 kts 154°
2026-05-08 20:10 49.92256 1.10966 21367 ft 349 kts 154°
2026-05-08 20:10 49.90079 1.12602 21114 ft 347 kts 155°
2026-05-08 20:11 49.87880 1.14250 20857 ft 345 kts 155°
2026-05-08 20:11 49.85758 1.15839 20611 ft 343 kts 155°
2026-05-08 20:11 49.83615 1.17442 20265 ft 341 kts 155°
2026-05-08 20:11 49.81487 1.19034 19895 ft 338 kts 155°
2026-05-08 20:12 49.79376 1.20611 19539 ft 336 kts 155°
2026-05-08 20:12 49.77281 1.22172 19185 ft 333 kts 155°
2026-05-08 20:12 49.75201 1.23722 18826 ft 331 kts 155°
2026-05-08 20:12 49.73136 1.25260 18475 ft 329 kts 155°
2026-05-08 20:13 49.71080 1.26787 18093 ft 327 kts 155°
2026-05-08 20:13 49.69036 1.28306 17730 ft 325 kts 155°
2026-05-08 20:13 49.67002 1.29818 17383 ft 324 kts 155°
2026-05-08 20:13 49.64978 1.31325 17039 ft 322 kts 155°
2026-05-08 20:14 49.62963 1.32822 16691 ft 321 kts 155°
2026-05-08 20:14 49.60955 1.34308 16344 ft 319 kts 155°
2026-05-08 20:14 49.58958 1.35780 16001 ft 317 kts 155°
2026-05-08 20:14 49.56973 1.37243 15666 ft 315 kts 155°
2026-05-08 20:15 49.54997 1.38699 15318 ft 314 kts 155°
2026-05-08 20:15 49.53032 1.40149 14993 ft 313 kts 155°
2026-05-08 20:15 49.51073 1.41597 14656 ft 312 kts 155°
2026-05-08 20:15 49.49116 1.43041 14320 ft 312 kts 155°
2026-05-08 20:16 49.47163 1.44481 13983 ft 311 kts 155°
2026-05-08 20:16 49.45214 1.45915 13627 ft 310 kts 155°
2026-05-08 20:16 49.43274 1.47341 13283 ft 308 kts 155°
2026-05-08 20:16 49.41343 1.48756 12948 ft 307 kts 155°
2026-05-08 20:17 49.39422 1.50158 12635 ft 305 kts 155°
2026-05-08 20:17 49.37505 1.51556 12317 ft 304 kts 155°
2026-05-08 20:17 49.35597 1.52948 11982 ft 303 kts 155°
2026-05-08 20:17 49.33700 1.54336 11652 ft 301 kts 155°
2026-05-08 20:18 49.31944 1.56046 11331 ft 299 kts 138°
2026-05-08 20:18 49.30623 1.58489 11015 ft 298 kts 119°
2026-05-08 20:18 49.29864 1.61415 10854 ft 296 kts 104°
2026-05-08 20:18 49.29104 1.64335 10660 ft 297 kts 123°
2026-05-08 20:19 49.27650 1.66522 10420 ft 294 kts 147°
2026-05-08 20:19 49.25884 1.68093 10180 ft 293 kts 152°
2026-05-08 20:19 49.24097 1.69578 9932 ft 291 kts 152°
2026-05-08 20:19 49.22316 1.71042 9659 ft 290 kts 152°
2026-05-08 20:20 49.20541 1.72495 9402 ft 289 kts 152°
2026-05-08 20:20 49.18773 1.73939 9139 ft 288 kts 152°
2026-05-08 20:20 49.17007 1.75380 8874 ft 287 kts 152°
2026-05-08 20:20 49.15253 1.76811 8611 ft 285 kts 152°
2026-05-08 20:21 49.13544 1.78226 8456 ft 274 kts 152°
2026-05-08 20:21 49.11915 1.79607 8326 ft 262 kts 152°
2026-05-08 20:21 49.10358 1.80938 8183 ft 252 kts 152°
2026-05-08 20:21 49.08847 1.82234 7912 ft 247 kts 152°
2026-05-08 20:22 49.07856 1.83083 7703 ft 246 kts 152°
2026-05-08 20:22 49.06375 1.84350 7382 ft 243 kts 152°
2026-05-08 20:22 49.04911 1.85628 7048 ft 242 kts 148°
2026-05-08 20:22 49.03751 1.87465 6709 ft 242 kts 125°
2026-05-08 20:23 49.02853 1.89634 6426 ft 241 kts 122°
2026-05-08 20:23 49.01988 1.91820 6166 ft 240 kts 122°
2026-05-08 20:23 49.01132 1.93988 5912 ft 238 kts 122°
2026-05-08 20:23 49.00276 1.96139 5647 ft 236 kts 122°
2026-05-08 20:24 48.99432 1.98263 5390 ft 234 kts 119°
2026-05-08 20:24 48.99072 2.00622 5135 ft 232 kts 82°
2026-05-08 20:24 48.99611 2.02920 4948 ft 232 kts 68°
2026-05-08 20:24 48.99907 2.05311 4773 ft 231 kts 88°
2026-05-08 20:25 48.99981 2.07742 4587 ft 230 kts 87°
2026-05-08 20:25 49.00102 2.10167 4400 ft 229 kts 85°
2026-05-08 20:25 49.00239 2.12572 4225 ft 228 kts 85°
2026-05-08 20:25 49.00378 2.14966 4082 ft 226 kts 85°
2026-05-08 20:26 49.00515 2.17351 4004 ft 226 kts 85°
2026-05-08 20:26 49.00651 2.19735 4007 ft 226 kts 85°
2026-05-08 20:26 49.00785 2.22091 4001 ft 217 kts 85°
2026-05-08 20:26 49.00911 2.24319 3937 ft 206 kts 85°
2026-05-08 20:27 49.01033 2.26466 3733 ft 202 kts 85°
2026-05-08 20:27 49.01150 2.28556 3489 ft 194 kts 85°
2026-05-08 20:27 49.01263 2.30567 3239 ft 188 kts 85°
2026-05-08 20:27 49.01373 2.32523 3038 ft 183 kts 85°
2026-05-08 20:28 49.01480 2.34448 2749 ft 180 kts 85°
2026-05-08 20:28 49.01583 2.36294 2511 ft 170 kts 85°
2026-05-08 20:28 49.01680 2.38033 2290 ft 160 kts 84°
2026-05-08 20:28 49.01771 2.39683 2080 ft 152 kts 84°
2026-05-08 20:29 49.01857 2.41253 1880 ft 145 kts 84°
2026-05-08 20:29 49.01939 2.42745 1695 ft 138 kts 84°
2026-05-08 20:29 49.02016 2.44135 1507 ft 128 kts 84°
2026-05-08 20:29 49.02089 2.45465 1345 ft 125 kts 85°
2026-05-08 20:30 49.02162 2.46784 1164 ft 124 kts 84°
2026-05-08 20:30 49.02232 2.48110 989 ft 127 kts 84°
2026-05-08 20:30 49.02308 2.49453 832 ft 128 kts 84°
2026-05-08 20:30 49.02380 2.50802 642 ft 128 kts 84°
2026-05-08 20:31 49.02454 2.52151 463 ft 128 kts 83°
2026-05-08 20:31 49.02527 2.53477 357 ft 118 kts 85°
2026-05-08 20:31 49.02581 2.54492 355 ft 79 kts 85°
2026-05-08 20:31 49.02610 2.55065 354 ft 27 kts 91°
2026-05-08 20:32 49.02568 2.55295 357 ft 21 kts 111°
2026-05-08 20:32 49.02510 2.55481 357 ft 9 kts 116°
2026-05-08 20:32 49.02487 2.55561 357 ft 9 kts 110°
2026-05-08 20:32 49.02463 2.55621 358 ft 6 kts 167°
2026-05-08 20:33 49.02421 2.55616 355 ft 6 kts 185°
2026-05-08 20:33 49.02400 2.55616 355 ft 0 kts 176°
2026-05-08 20:34 49.02394 2.55617 355 ft 3 kts 176°
2026-05-08 20:34 49.02348 2.55622 355 ft 10 kts 176°
2026-05-08 20:34 49.02180 2.55642 361 ft 10 kts 176°
2026-05-08 20:35 49.02132 2.55647 354 ft 6 kts 175°
2026-05-08 20:35 49.02096 2.55674 356 ft 6 kts 132°
2026-05-08 20:35 49.02080 2.55739 359 ft 7 kts 101°
2026-05-08 20:35 49.02081 2.55820 354 ft 8 kts 83°
2026-05-08 20:36 49.02087 2.55915 354 ft 10 kts 85°
2026-05-08 20:36 49.02093 2.56041 355 ft 13 kts 85°
2026-05-08 20:36 49.02098 2.56194 355 ft 15 kts 92°
2026-05-08 20:36 49.02047 2.56337 356 ft 16 kts 128°
2026-05-08 20:37 49.02026 2.56501 358 ft 17 kts 85°
2026-05-08 20:37 49.02036 2.56683 355 ft 18 kts 85°
2026-05-08 20:37 49.02047 2.56874 354 ft 19 kts 85°
2026-05-08 20:37 49.02057 2.57074 354 ft 19 kts 85°
2026-05-08 20:38 49.02068 2.57283 354 ft 20 kts 85°
2026-05-08 20:38 49.02080 2.57499 354 ft 21 kts 85°
2026-05-08 20:38 49.02090 2.57721 354 ft 21 kts 89°
2026-05-08 20:38 49.02045 2.57936 354 ft 22 kts 121°
2026-05-08 20:39 49.01929 2.58085 360 ft 22 kts 159°
2026-05-08 20:39 49.01773 2.58130 354 ft 23 kts 175°
2026-05-08 20:39 49.01612 2.58149 357 ft 24 kts 176°
2026-05-08 20:39 49.01446 2.58168 358 ft 22 kts 174°
2026-05-08 20:40 49.01339 2.58184 359 ft 14 kts 176°
2026-05-08 20:40 49.01237 2.58196 354 ft 15 kts 174°
2026-05-08 20:40 49.01129 2.58211 354 ft 16 kts 175°
2026-05-08 20:40 49.01054 2.58220 354 ft 9 kts 175°
2026-05-08 20:41 49.01011 2.58226 354 ft 0 kts 175°
2026-05-08 20:41 49.01009 2.58226 354 ft 2 kts 174°
2026-05-08 20:42 49.00971 2.58229 357 ft 9 kts 183°
2026-05-08 20:42 49.00912 2.58162 361 ft 13 kts 253°
2026-05-08 20:42 49.00902 2.58005 354 ft 17 kts 265°
2026-05-08 20:42 49.00892 2.57809 356 ft 20 kts 265°
2026-05-08 20:43 49.00881 2.57597 354 ft 19 kts 265°
2026-05-08 20:43 49.00870 2.57406 354 ft 17 kts 265°
2026-05-08 20:43 49.00861 2.57237 354 ft 15 kts 265°
2026-05-08 20:43 49.00852 2.57090 354 ft 13 kts 265°
2026-05-08 20:44 49.00846 2.56965 354 ft 11 kts 265°
2026-05-08 20:44 49.00839 2.56849 358 ft 11 kts 263°
2026-05-08 20:44 49.00834 2.56725 354 ft 12 kts 266°
2026-05-08 20:44 49.00826 2.56590 354 ft 13 kts 265°
2026-05-08 20:45 49.00811 2.56473 355 ft 9 kts 234°
2026-05-08 20:45 49.00778 2.56453 354 ft 7 kts 185°
2026-05-08 20:45 49.00724 2.56456 355 ft 6 kts 172°
2026-05-08 20:45 49.00676 2.56464 355 ft 8 kts 176°
2026-05-08 20:46 49.00622 2.56435 357 ft 10 kts 240°
2026-05-08 20:46 49.00620 2.56327 354 ft 10 kts 269°
2026-05-08 20:46 49.00614 2.56244 354 ft 4 kts 253°
2026-05-08 20:46 49.00596 2.56230 358 ft 3 kts 186°
2026-05-08 20:47 49.00576 2.56234 354 ft 4 kts 173°
2026-05-08 20:47 49.00545 2.56241 354 ft 5 kts 171°
2026-05-08 20:47 49.00534 2.56244 354 ft 0 kts 171°